Weather History for Buffalo, WY

Change the Weather History Date:

Sunday, September 29, 2013

  Actual Average Record
Temperature  
Mean Temperature 55 °F 52 °F  
Max Temperature 66 °F 64 °F 88 °F (2009)
Min Temperature 44 °F 39 °F 29 °F (1999)
Degree Days  
Heating Degree Days 10 14  
Month to date heating degree days 144 235  
Since 1 July heating degree days 145 300  
Cooling Degree Days 0 0  
Month to date cooling degree days 95 44  
Year to date cooling degree days 709 490  
Growing Degree Days 6 (Base 50)    
Moisture  
Dew Point 33 °F    
Average Humidity 45    
Maximum Humidity 60    
Minimum Humidity 29    
Precipitation  
Precipitation 0.00 in 0.06 in 0.01 in (2007)
Month to date precipitation 3.34 1.25  
Year to date precipitation 7.76 11.52  
Sea Level Pressure  
Sea Level Pressure 29.69 in    
Wind  
Wind Speed 11 mph (SW)    
Max Wind Speed 41 mph    
Max Gust Speed 48 mph    
Visibility 10 miles    
Events      
T = Trace of Precipitation, MM = Missing Value Source: NWS Daily Summary

Daily Weather History Graph

Daily Weather History Graph

Search for Another Location

Airport:

Trip Planner

Search our weather history database for the weather conditions in past years. The results will help you decide how hot, cold, wet, or windy it might be!

Date:

Astronomy

Sep. 29, 2013 Rise Set
Actual Time 7:02 AM MDT 6:50 PM MDT
Civil Twilight 6:33 AM MDT 7:19 PM MDT
Nautical Twilight 5:59 AM MDT 7:53 PM MDT
Astronomical Twilight 5:25 AM MDT 8:27 PM MDT
Moon 1:36 AM MDT (9/29) 3:57 PM MDT (9/29)
Length of Visible Light 12h 45m
Length of Day
11h 48m
Waning Crescent, 26% of the Moon is Illuminated
Sep 29
Waning Crescent
Oct 4
New
Oct 11
First Quarter
Oct 18
Full
Oct 26
Last Quarter

Hourly Weather History & Observations

Time (MDT) Temp. Dew Point Humidity Pressure Visibility Wind Dir Wind Speed Gust Speed Precip Events Conditions
12:53 AM 46.9 °F 32.0 °F 56% 29.86 in 10.0 mi West 5.8 mph - N/A   Clear
1:53 AM 48.9 °F 32.0 °F 52% 29.83 in 10.0 mi Calm Calm - N/A   Clear
2:53 AM 46.9 °F 33.1 °F 59% 29.79 in 10.0 mi Calm Calm - N/A   Clear
3:53 AM 46.9 °F 30.9 °F 54% 29.78 in 10.0 mi West 9.2 mph - N/A   Clear
4:53 AM 48.9 °F 30.0 °F 48% 29.76 in 10.0 mi Variable 3.5 mph - N/A   Clear
5:53 AM 55.0 °F 30.0 °F 38% 29.72 in 10.0 mi South 5.8 mph - N/A   Clear
6:53 AM 48.9 °F 32.0 °F 52% 29.76 in 10.0 mi WSW 10.4 mph - N/A   Clear
7:53 AM 52.0 °F 35.1 °F 53% 29.75 in 10.0 mi SW 4.6 mph - N/A   Clear
8:53 AM 52.0 °F 37.0 °F 57% 29.73 in 10.0 mi SW 4.6 mph - N/A   Clear
9:53 AM 57.9 °F 37.0 °F 46% 29.66 in 10.0 mi South 10.4 mph 16.1 mph N/A   Clear
10:53 AM 64.0 °F 35.1 °F 34% 29.65 in 10.0 mi South 16.1 mph - N/A   Clear
11:53 AM 64.9 °F 33.1 °F 31% 29.65 in 10.0 mi SW 24.2 mph 33.4 mph N/A   Unknown
12:53 PM 64.9 °F 32.0 °F 29% 29.61 in 10.0 mi SW 18.4 mph 29.9 mph N/A   Clear
1:53 PM 66.0 °F 33.1 °F 29% 29.59 in 10.0 mi SW 24.2 mph 31.1 mph N/A   Clear
2:53 PM 64.9 °F 32.0 °F 29% 29.61 in 10.0 mi WSW 27.6 mph 36.8 mph N/A   Clear
3:53 PM 64.0 °F 33.1 °F 31% 29.65 in 10.0 mi West 17.3 mph 20.7 mph N/A   Clear
4:53 PM 66.0 °F 33.1 °F 29% 29.65 in 10.0 mi WNW 9.2 mph 17.3 mph N/A   Partly Cloudy
5:53 PM 61.0 °F 35.1 °F 38% 29.63 in 10.0 mi SW 6.9 mph - N/A   Clear
6:53 PM 62.1 °F 30.9 °F 31% 29.65 in 10.0 mi WSW 8.1 mph - N/A   Clear
7:53 PM 61.0 °F 32.0 °F 34% 29.65 in 10.0 mi WSW 19.6 mph 24.2 mph N/A   Clear
8:53 PM 57.0 °F 33.1 °F 40% 29.68 in 10.0 mi SSW 3.5 mph - N/A   Clear
9:53 PM 62.1 °F 30.0 °F 30% 29.67 in 10.0 mi Calm Calm - N/A   Mostly Cloudy
10:53 PM 54.0 °F 34.0 °F 47% 29.68 in 10.0 mi Variable 3.5 mph - N/A   Partly Cloudy
11:53 PM 57.0 °F 33.1 °F 40% 29.64 in 10.0 mi SSW 18.4 mph 25.3 mph N/A   Mostly Cloudy